• In India
  • List of Countries
  • For 7 days
  • Water Temperature
  • Satellite Maps
  • Weather Map
  • Weather Widgets
  • user-avatar
    Login

    Hourly Weather Poperechne

    Today, 18 June, Monday

    Time Temperature Precipitation Wind Pressure Humidity
    00:00 +17°C° 0 mm 3 mps 746 mmHg 70%
    01:00 +16°C° 0 mm 3 mps 746 mmHg 71%
    02:00 +16°C° 0 mm 3 mps 745 mmHg 69%
    03:00 +16°C° 0 mm 3 mps 745 mmHg 71%
    04:00 +16°C° 0 mm 3 mps 745 mmHg 72%
    05:00 +16°C° 0 mm 3 mps 745 mmHg 74%
    06:00 +18°C° 0 mm 4 mps 746 mmHg 68%
    07:00 +20°C° 0 mm 4 mps 746 mmHg 61%
    08:00 +23°C° 0 mm 4 mps 746 mmHg 55%
    09:00 +25°C° 0 mm 4 mps 746 mmHg 50%
    10:00 +26°C° 0 mm 5 mps 746 mmHg 44%
    11:00 +27°C° 0 mm 5 mps 746 mmHg 39%
    12:00 +27°C° 0 mm 5 mps 746 mmHg 39%
    13:00 +28°C° 0 mm 5 mps 746 mmHg 40%
    14:00 +28°C° 0 mm 5 mps 746 mmHg 40%
    15:00 +28°C° 0 mm 4 mps 746 mmHg 44%
    16:00 +27°C° 0 mm 4 mps 746 mmHg 47%
    17:00 +27°C° 0 mm 3 mps 746 mmHg 50%
    18:00 +25°C° 0 mm 3 mps 746 mmHg 55%
    19:00 +24°C° 0 mm 3 mps 746 mmHg 60%
    20:00 +21°C° 0 mm 3 mps 746 mmHg 65%
    21:00 +20°C° 0 mm 3 mps 746 mmHg 67%
    22:00 +19°C° 0 mm 3 mps 746 mmHg 69%
    23:00 +18°C° 0 mm 3 mps 747 mmHg 71%

    Tomorrow, 19 June, Tuesday

    Time Temperature Precipitation Wind Pressure Humidity
    00:00 +18°C° 0 mm 3 mps 747 mmHg 72%
    01:00 +17°C° 0 mm 3 mps 747 mmHg 74%
    02:00 +17°C° 0 mm 3 mps 747 mmHg 75%
    03:00 +17°C° 0 mm 3 mps 747 mmHg 76%
    04:00 +17°C° 0 mm 3 mps 747 mmHg 78%
    05:00 +17°C° 0 mm 2 mps 748 mmHg 79%
    06:00 +19°C° 0 mm 3 mps 748 mmHg 73%
    07:00 +21°C° 0 mm 3 mps 748 mmHg 67%
    08:00 +24°C° 0 mm 3 mps 748 mmHg 62%
    09:00 +25°C° 0 mm 3 mps 748 mmHg 56%
    10:00 +26°C° 0 mm 3 mps 748 mmHg 51%
    11:00 +27°C° 0 mm 3 mps 748 mmHg 46%
    12:00 +28°C° 0 mm 3 mps 748 mmHg 46%
    13:00 +28°C° 0 mm 3 mps 748 mmHg 46%
    14:00 +28°C° 0 mm 2 mps 748 mmHg 46%
    15:00 +28°C° 0 mm 2 mps 748 mmHg 48%
    16:00 +28°C° 0 mm 3 mps 748 mmHg 50%
    17:00 +27°C° 0 mm 3 mps 748 mmHg 51%
    18:00 +26°C° 0 mm 2 mps 748 mmHg 55%
    19:00 +24°C° 0 mm 2 mps 748 mmHg 60%
    20:00 +21°C° 0 mm 2 mps 748 mmHg 64%
    21:00 +21°C° 0 mm 2 mps 748 mmHg 66%
    22:00 +20°C° 0 mm 2 mps 748 mmHg 67%
    23:00 +19°C° 0 mm 2 mps 749 mmHg 68%

    Day after tomorrow, 20 June, Wednesday

    Time Temperature Precipitation Wind Pressure Humidity
    00:00 +20°C° 0 mm 1 mps 749 mmHg 69%
    01:00 +19°C° 0 mm 1 mps 749 mmHg 70%
    02:00 +19°C° 0 mm 1 mps 749 mmHg 71%
    03:00 +20°C° 0 mm 1 mps 749 mmHg 72%
    04:00 +20°C° 0 mm 1 mps 749 mmHg 72%
    05:00 +21°C° 0 mm 1 mps 749 mmHg 72%
    06:00 +22°C° 0 mm 1 mps 749 mmHg 67%
    07:00 +24°C° 0 mm 1 mps 749 mmHg 61%
    08:00 +26°C° 0 mm 1 mps 749 mmHg 56%
    09:00 +27°C° 0 mm 1 mps 749 mmHg 53%
    10:00 +28°C° 0 mm 2 mps 749 mmHg 51%
    11:00 +29°C° 0 mm 2 mps 749 mmHg 49%
    12:00 +29°C° 0 mm 2 mps 749 mmHg 49%
    13:00 +29°C° 0 mm 1 mps 749 mmHg 49%
    14:00 +30°C° 0 mm 1 mps 748 mmHg 49%
    15:00 +30°C° 0 mm 1 mps 748 mmHg 51%
    16:00 +30°C° 0 mm 1 mps 748 mmHg 53%
    17:00 +29°C° 0 mm 1 mps 748 mmHg 55%
    18:00 +28°C° 0.1 mm 1 mps 748 mmHg 60%
    19:00 +26°C° 0.1 mm 1 mps 748 mmHg 65%
    20:00 +25°C° 0.1 mm 1 mps 748 mmHg 70%
    21:00 +24°C° 0 mm 1 mps 748 mmHg 74%
    22:00 +23°C° 0 mm 1 mps 748 mmHg 77%
    23:00 +23°C° 0 mm 1 mps 749 mmHg 81%

    21 June, Thursday

    Time Temperature Precipitation Wind Pressure Humidity
    00:00 +22°C° 0 mm 1 mps 748 mmHg 83%
    01:00 +21°C° 0 mm 2 mps 748 mmHg 86%
    02:00 +20°C° 0 mm 2 mps 748 mmHg 88%
    03:00 +20°C° 0 mm 2 mps 748 mmHg 88%
    04:00 +21°C° 0 mm 2 mps 748 mmHg 87%
    05:00 +21°C° 0 mm 2 mps 748 mmHg 87%
    06:00 +24°C° 0.1 mm 2 mps 748 mmHg 81%
    07:00 +25°C° 0.1 mm 2 mps 748 mmHg 74%
    08:00 +27°C° 0.1 mm 2 mps 748 mmHg 68%
    09:00 +28°C° 0.5 mm 2 mps 748 mmHg 64%
    10:00 +29°C° 0.5 mm 2 mps 748 mmHg 60%
    11:00 +30°C° 0.5 mm 2 mps 747 mmHg 55%
    12:00 +30°C° 0.8 mm 2 mps 747 mmHg 55%
    13:00 +30°C° 0.8 mm 2 mps 747 mmHg 54%
    14:00 +30°C° 0.8 mm 2 mps 746 mmHg 53%
    15:00 +30°C° 0.9 mm 2 mps 746 mmHg 56%
    16:00 +29°C° 0.9 mm 2 mps 746 mmHg 59%
    17:00 +29°C° 0.9 mm 2 mps 746 mmHg 62%
    18:00 +27°C° 0.1 mm 2 mps 746 mmHg 68%
    19:00 +26°C° 0.1 mm 2 mps 746 mmHg 73%
    20:00 +24°C° 0.1 mm 2 mps 746 mmHg 79%
    21:00 +24°C° 0 mm 2 mps 746 mmHg 81%
    22:00 +23°C° 0 mm 2 mps 745 mmHg 83%
    23:00 +23°C° 0 mm 2 mps 745 mmHg 84%

    22 June, Friday

    Time Temperature Precipitation Wind Pressure Humidity
    00:00 +21°C° 0 mm 2 mps 745 mmHg 85%
    01:00 +21°C° 0 mm 2 mps 745 mmHg 86%
    02:00 +21°C° 0 mm 2 mps 745 mmHg 87%
    03:00 +21°C° 0 mm 2 mps 745 mmHg 86%
    04:00 +21°C° 0 mm 2 mps 744 mmHg 85%
    05:00 +21°C° 0 mm 2 mps 744 mmHg 84%
    06:00 +24°C° 0 mm 2 mps 744 mmHg 76%
    07:00 +26°C° 0 mm 3 mps 744 mmHg 69%
    08:00 +28°C° 0 mm 3 mps 744 mmHg 61%
    09:00 +29°C° 0 mm 3 mps 744 mmHg 56%
    10:00 +30°C° 0 mm 4 mps 744 mmHg 50%
    11:00 +33°C° 0 mm 4 mps 744 mmHg 45%
    12:00 +33°C° 0 mm 4 mps 743 mmHg 46%
    13:00 +32°C° 0 mm 4 mps 743 mmHg 46%
    14:00 +32°C° 0 mm 5 mps 743 mmHg 47%
    15:00 +30°C° 0.1 mm 4 mps 742 mmHg 50%
    16:00 +29°C° 0.1 mm 4 mps 742 mmHg 53%
    17:00 +29°C° 0.1 mm 4 mps 742 mmHg 56%
    18:00 +27°C° 0 mm 4 mps 742 mmHg 62%
    19:00 +25°C° 0 mm 4 mps 742 mmHg 69%
    20:00 +22°C° 0 mm 4 mps 742 mmHg 75%
    21:00 +21°C° 0 mm 3 mps 742 mmHg 77%
    22:00 +21°C° 0 mm 3 mps 741 mmHg 78%
    23:00 +20°C° 0 mm 3 mps 741 mmHg 79%

    23 June, Saturday

    Time Temperature Precipitation Wind Pressure Humidity
    00:00 +20°C° 0 mm 3 mps 741 mmHg 81%
    01:00 +20°C° 0 mm 3 mps 741 mmHg 82%
    02:00 +20°C° 0 mm 3 mps 741 mmHg 83%
    03:00 +20°C° 0.1 mm 2 mps 741 mmHg 83%
    04:00 +20°C° 0.1 mm 2 mps 741 mmHg 82%
    05:00 +20°C° 0.1 mm 2 mps 741 mmHg 82%
    06:00 +23°C° 0.2 mm 2 mps 741 mmHg 76%
    07:00 +25°C° 0.2 mm 3 mps 741 mmHg 70%
    08:00 +27°C° 0.2 mm 3 mps 741 mmHg 64%
    09:00 +28°C° 0 mm 3 mps 741 mmHg 59%
    10:00 +30°C° 0 mm 3 mps 740 mmHg 54%
    11:00 +31°C° 0 mm 3 mps 740 mmHg 49%
    12:00 +31°C° 0 mm 3 mps 740 mmHg 48%
    13:00 +31°C° 0 mm 3 mps 740 mmHg 48%
    14:00 +31°C° 0 mm 3 mps 740 mmHg 48%
    15:00 +30°C° 0.1 mm 3 mps 740 mmHg 53%
    16:00 +29°C° 0.1 mm 4 mps 740 mmHg 58%
    17:00 +28°C° 0.1 mm 4 mps 741 mmHg 63%
    18:00 +27°C° 0.5 mm 4 mps 741 mmHg 70%
    19:00 +25°C° 0.5 mm 4 mps 741 mmHg 76%
    20:00 +22°C° 0.5 mm 3 mps 741 mmHg 83%
    21:00 +21°C° 0.2 mm 4 mps 742 mmHg 86%
    22:00 +20°C° 0.2 mm 4 mps 742 mmHg 89%
    23:00 +19°C° 0.2 mm 5 mps 742 mmHg 92%
    Show more